Year,Month,Day,Hour,Minute,Value (Times are PST for temperature in C)
2015,06,01,00,00,17.50
2015,06,01,00,01,17.50
2015,06,01,00,02,17.40
2015,06,01,00,03,17.40
2015,06,01,00,04,17.40
2015,06,01,00,05,17.40
2015,06,01,00,06,17.40
2015,06,01,00,07,17.40
2015,06,01,00,08,17.40
2015,06,01,00,09,17.40
2015,06,01,00,10,17.40
2015,06,01,00,11,17.40
2015,06,01,00,12,17.30
2015,06,01,00,13,17.30
2015,06,01,00,14,17.30
2015,06,01,00,15,17.30
2015,06,01,00,16,17.30
2015,06,01,00,17,17.30
2015,06,01,00,18,17.30
2015,06,01,00,19,17.30
2015,06,01,00,20,17.20
2015,06,01,00,21,17.20
2015,06,01,00,22,17.20
2015,06,01,00,23,17.20
2015,06,01,00,24,17.20
2015,06,01,00,25,17.20
2015,06,01,00,26,17.20
2015,06,01,00,27,17.20
2015,06,01,00,28,17.20
2015,06,01,00,29,17.20
2015,06,01,00,30,17.20
2015,06,01,00,31,17.20
2015,06,01,00,32,17.20
2015,06,01,00,33,17.20
2015,06,01,00,34,17.20
2015,06,01,00,35,17.20
2015,06,01,00,36,17.20
2015,06,01,00,37,17.20
2015,06,01,00,38,17.20
2015,06,01,00,39,17.20
2015,06,01,00,40,17.20
2015,06,01,00,41,17.20
2015,06,01,00,42,17.20
2015,06,01,00,43,17.20
2015,06,01,00,44,17.20
2015,06,01,00,45,17.20
2015,06,01,00,46,17.20
2015,06,01,00,47,17.20
2015,06,01,00,48,17.20
2015,06,01,00,49,17.20
2015,06,01,00,50,17.20
2015,06,01,00,51,17.20
2015,06,01,00,52,17.20
2015,06,01,00,53,17.20
2015,06,01,00,54,17.20
2015,06,01,00,55,17.20
2015,06,01,00,56,17.10
2015,06,01,00,57,17.10
2015,06,01,00,58,17.10
2015,06,01,00,59,17.10
2015,06,01,01,00,17.10
2015,06,01,01,01,17.10
2015,06,01,01,02,17.00
2015,06,01,01,03,17.00
2015,06,01,01,04,17.00
2015,06,01,01,05,16.90
2015,06,01,01,06,16.90
2015,06,01,01,07,16.90
2015,06,01,01,08,16.90
2015,06,01,01,09,16.90
2015,06,01,01,10,16.90
2015,06,01,01,11,16.80
2015,06,01,01,12,16.80
2015,06,01,01,13,16.80
2015,06,01,01,14,16.80
2015,06,01,01,15,16.80
2015,06,01,01,16,16.80
2015,06,01,01,17,16.80
2015,06,01,01,18,16.80
2015,06,01,01,19,16.80
2015,06,01,01,20,16.80
2015,06,01,01,21,16.80
2015,06,01,01,22,16.80
2015,06,01,01,23,16.80
2015,06,01,01,24,16.80
2015,06,01,01,25,16.80
2015,06,01,01,26,16.80
2015,06,01,01,27,16.90
2015,06,01,01,28,16.90
2015,06,01,01,29,16.90
2015,06,01,01,30,16.90
2015,06,01,01,31,16.90
2015,06,01,01,32,16.90
2015,06,01,01,33,16.90
2015,06,01,01,34,16.90
2015,06,01,01,35,16.90
2015,06,01,01,36,16.90
2015,06,01,01,37,16.80
2015,06,01,01,38,16.80
2015,06,01,01,39,16.80
2015,06,01,01,40,16.80
2015,06,01,01,41,16.70
2015,06,01,01,42,16.70
2015,06,01,01,43,16.70
2015,06,01,01,44,16.70
2015,06,01,01,45,16.70
2015,06,01,01,46,16.70
2015,06,01,01,47,16.70
2015,06,01,01,48,16.70
2015,06,01,01,49,16.70
2015,06,01,01,50,16.70
2015,06,01,01,51,16.70
2015,06,01,01,52,16.70
2015,06,01,01,53,16.70
2015,06,01,01,54,16.70
2015,06,01,01,55,16.70
2015,06,01,01,56,16.70
2015,06,01,01,57,16.70
2015,06,01,01,58,16.70
2015,06,01,01,59,16.70
2015,06,01,02,00,16.70
2015,06,01,02,01,16.70
2015,06,01,02,02,16.60
2015,06,01,02,03,16.60
2015,06,01,02,04,16.60
2015,06,01,02,05,16.60
2015,06,01,02,06,16.60
2015,06,01,02,07,16.60
2015,06,01,02,08,16.60
2015,06,01,02,09,16.50
2015,06,01,02,10,16.50
2015,06,01,02,11,16.50
2015,06,01,02,12,16.50
2015,06,01,02,13,16.40
2015,06,01,02,14,16.40
2015,06,01,02,15,16.40
2015,06,01,02,16,16.40
2015,06,01,02,17,16.40
2015,06,01,02,18,16.40
2015,06,01,02,19,16.40
2015,06,01,02,20,16.40
2015,06,01,02,21,16.40
2015,06,01,02,22,16.40
2015,06,01,02,23,16.40
2015,06,01,02,24,16.40
2015,06,01,02,25,16.40
2015,06,01,02,26,16.40
2015,06,01,02,27,16.40
2015,06,01,02,28,16.40
2015,06,01,02,29,16.40
2015,06,01,02,30,16.30
2015,06,01,02,31,16.30
2015,06,01,02,32,16.30
2015,06,01,02,33,16.30
2015,06,01,02,34,16.30
2015,06,01,02,35,16.30
2015,06,01,02,36,16.30
2015,06,01,02,37,16.30
2015,06,01,02,38,16.20
2015,06,01,02,39,16.20
2015,06,01,02,40,16.20
2015,06,01,02,41,16.20
2015,06,01,02,42,16.20
2015,06,01,02,43,16.20
2015,06,01,02,44,16.20
2015,06,01,02,45,16.20
2015,06,01,02,46,16.20
2015,06,01,02,47,16.10
2015,06,01,02,48,16.10
2015,06,01,02,49,16.10
2015,06,01,02,50,16.10
2015,06,01,02,51,16.00
2015,06,01,02,52,16.00
2015,06,01,02,53,15.90
2015,06,01,02,54,15.90
2015,06,01,02,55,15.90
2015,06,01,02,56,15.90
2015,06,01,02,57,15.80
2015,06,01,02,58,15.80
2015,06,01,02,59,15.80
2015,06,01,03,00,15.80
2015,06,01,03,01,15.80
2015,06,01,03,02,15.70
2015,06,01,03,03,15.70
2015,06,01,03,04,15.70
2015,06,01,03,05,15.70
2015,06,01,03,06,15.70
2015,06,01,03,07,15.70
2015,06,01,03,08,15.70
2015,06,01,03,09,15.70
2015,06,01,03,10,15.70
2015,06,01,03,11,15.60
2015,06,01,03,12,15.60
2015,06,01,03,13,15.60
2015,06,01,03,14,15.60
2015,06,01,03,15,15.60
2015,06,01,03,16,15.60
2015,06,01,03,17,15.50
2015,06,01,03,18,15.50
2015,06,01,03,19,15.50
2015,06,01,03,20,15.50
2015,06,01,03,21,15.50
2015,06,01,03,22,15.40
2015,06,01,03,23,15.40
2015,06,01,03,24,15.40
2015,06,01,03,25,15.40
2015,06,01,03,26,15.40
2015,06,01,03,27,15.40
2015,06,01,03,28,15.40
2015,06,01,03,29,15.40
2015,06,01,03,30,15.30
2015,06,01,03,31,15.40
2015,06,01,03,32,15.30
2015,06,01,03,33,15.40
2015,06,01,03,34,15.40
2015,06,01,03,35,15.40
2015,06,01,03,36,15.50
2015,06,01,03,37,15.50
2015,06,01,03,38,15.60
2015,06,01,03,39,15.60
2015,06,01,03,40,15.60
2015,06,01,03,41,15.60
2015,06,01,03,42,15.60
2015,06,01,03,43,15.60
2015,06,01,03,44,15.60
2015,06,01,03,45,15.60
2015,06,01,03,46,15.60
2015,06,01,03,47,15.60
2015,06,01,03,48,15.60
2015,06,01,03,49,15.60
2015,06,01,03,50,15.60
2015,06,01,03,51,15.60
2015,06,01,03,52,15.60
2015,06,01,03,53,15.60
2015,06,01,03,54,15.60
2015,06,01,03,55,15.60
2015,06,01,03,56,15.60
2015,06,01,03,57,15.60
2015,06,01,03,58,15.60
2015,06,01,03,59,15.60
2015,06,01,04,00,15.60
2015,06,01,04,01,15.60
2015,06,01,04,02,15.60
2015,06,01,04,03,15.60
2015,06,01,04,04,15.60
2015,06,01,04,05,15.60
2015,06,01,04,06,15.60
2015,06,01,04,07,15.50
2015,06,01,04,08,15.50
2015,06,01,04,09,15.50
2015,06,01,04,10,15.50
2015,06,01,04,11,15.50
2015,06,01,04,12,15.50
2015,06,01,04,13,15.50
2015,06,01,04,14,15.40
2015,06,01,04,15,15.40
2015,06,01,04,16,15.40
2015,06,01,04,17,15.40
2015,06,01,04,18,15.40
2015,06,01,04,19,15.40
2015,06,01,04,20,15.40
2015,06,01,04,21,15.40
2015,06,01,04,22,15.40
2015,06,01,04,23,15.40
2015,06,01,04,24,15.40
2015,06,01,04,25,15.40
2015,06,01,04,26,15.40
2015,06,01,04,27,15.40
2015,06,01,04,28,15.40
2015,06,01,04,29,15.40
2015,06,01,04,30,15.40
2015,06,01,04,31,15.40
2015,06,01,04,32,15.40
2015,06,01,04,33,15.40
2015,06,01,04,34,15.40
2015,06,01,04,35,15.40
2015,06,01,04,36,15.40
2015,06,01,04,37,15.40
2015,06,01,04,38,15.40
2015,06,01,04,39,15.40
2015,06,01,04,40,15.40
2015,06,01,04,41,15.40
2015,06,01,04,42,15.40
2015,06,01,04,43,15.40
2015,06,01,04,44,15.40
2015,06,01,04,45,15.40
2015,06,01,04,46,15.40
2015,06,01,04,47,15.40
2015,06,01,04,48,15.40
2015,06,01,04,49,15.40
2015,06,01,04,50,15.40
2015,06,01,04,51,15.40
2015,06,01,04,52,15.40
2015,06,01,04,53,15.40
2015,06,01,04,54,15.40
2015,06,01,04,55,15.40
2015,06,01,04,56,15.40
2015,06,01,04,57,15.40
2015,06,01,04,58,15.40
2015,06,01,04,59,15.40
2015,06,01,05,00,15.40
2015,06,01,05,01,15.40
2015,06,01,05,02,15.40
2015,06,01,05,03,15.40
2015,06,01,05,04,15.40
2015,06,01,05,05,15.40
2015,06,01,05,06,15.40
2015,06,01,05,07,15.40
2015,06,01,05,08,15.40
2015,06,01,05,09,15.40
2015,06,01,05,10,15.40
2015,06,01,05,11,15.40
2015,06,01,05,12,15.40
2015,06,01,05,13,15.40
2015,06,01,05,14,15.40
2015,06,01,05,15,15.30
2015,06,01,05,16,15.30
2015,06,01,05,17,15.30
2015,06,01,05,18,15.30
2015,06,01,05,19,15.30
2015,06,01,05,20,15.30
2015,06,01,05,21,15.20
2015,06,01,05,22,15.20
2015,06,01,05,23,15.20
2015,06,01,05,24,15.20
2015,06,01,05,25,15.20
2015,06,01,05,26,15.20
2015,06,01,05,27,15.20
2015,06,01,05,28,15.20
2015,06,01,05,29,15.20
2015,06,01,05,30,15.10
2015,06,01,05,31,15.10
2015,06,01,05,32,15.10
2015,06,01,05,33,15.10
2015,06,01,05,34,15.10
2015,06,01,05,35,15.10
2015,06,01,05,36,15.10
2015,06,01,05,37,15.10
2015,06,01,05,38,15.10
2015,06,01,05,39,15.10
2015,06,01,05,40,15.00
2015,06,01,05,41,15.00
2015,06,01,05,42,15.00
2015,06,01,05,43,15.00
2015,06,01,05,44,14.90
2015,06,01,05,45,14.90
2015,06,01,05,46,14.90
2015,06,01,05,47,14.90
2015,06,01,05,48,14.90
2015,06,01,05,49,14.90
2015,06,01,05,50,14.90
2015,06,01,05,51,14.90
2015,06,01,05,52,14.80
2015,06,01,05,53,14.80
2015,06,01,05,54,14.80
2015,06,01,05,55,14.80
2015,06,01,05,56,14.80
2015,06,01,05,57,14.80
2015,06,01,05,58,14.80
2015,06,01,05,59,14.80
2015,06,01,06,00,14.80
2015,06,01,06,01,14.80
2015,06,01,06,02,14.80
2015,06,01,06,03,14.90
2015,06,01,06,04,14.90
2015,06,01,06,05,14.90
2015,06,01,06,06,14.90
2015,06,01,06,07,14.90
2015,06,01,06,08,14.90
2015,06,01,06,09,14.90
2015,06,01,06,10,14.80
2015,06,01,06,11,14.80
2015,06,01,06,12,14.80
2015,06,01,06,13,14.80
2015,06,01,06,14,14.80
2015,06,01,06,15,14.80
2015,06,01,06,16,14.80
2015,06,01,06,17,14.80
2015,06,01,06,18,14.80
2015,06,01,06,19,14.80
2015,06,01,06,20,14.80
2015,06,01,06,21,14.80
2015,06,01,06,22,14.80
2015,06,01,06,23,14.80
2015,06,01,06,24,14.90
2015,06,01,06,25,14.90
2015,06,01,06,26,14.90
2015,06,01,06,27,14.90
2015,06,01,06,28,14.90
2015,06,01,06,29,14.90
2015,06,01,06,30,14.90
2015,06,01,06,31,14.90
2015,06,01,06,32,14.90
2015,06,01,06,33,14.90
2015,06,01,06,34,14.90
2015,06,01,06,35,14.90
2015,06,01,06,36,14.90
2015,06,01,06,37,14.90
2015,06,01,06,38,14.90
2015,06,01,06,39,14.90
2015,06,01,06,40,14.90
2015,06,01,06,41,14.90
2015,06,01,06,42,14.90
2015,06,01,06,43,14.90
2015,06,01,06,44,14.90
2015,06,01,06,45,14.90
2015,06,01,06,46,14.90
2015,06,01,06,47,14.90
2015,06,01,06,48,14.90
2015,06,01,06,49,14.90
2015,06,01,06,50,14.90
2015,06,01,06,51,15.00
2015,06,01,06,52,15.00
2015,06,01,06,53,15.10
2015,06,01,06,54,15.10
2015,06,01,06,55,15.10
2015,06,01,06,56,15.20
2015,06,01,06,57,15.20
2015,06,01,06,58,15.30
2015,06,01,06,59,15.30
2015,06,01,07,00,15.30
2015,06,01,07,01,15.40
2015,06,01,07,02,15.40
2015,06,01,07,03,15.50
2015,06,01,07,04,15.60
2015,06,01,07,05,15.60
2015,06,01,07,06,15.70
2015,06,01,07,07,15.70
2015,06,01,07,08,15.80
2015,06,01,07,09,15.90
2015,06,01,07,10,16.00
2015,06,01,07,11,16.10
2015,06,01,07,12,16.20
2015,06,01,07,13,16.20
2015,06,01,07,14,16.30
2015,06,01,07,15,16.30
2015,06,01,07,16,16.30
2015,06,01,07,17,16.40
2015,06,01,07,18,16.40
2015,06,01,07,19,16.40
2015,06,01,07,20,16.40
2015,06,01,07,21,16.40
2015,06,01,07,22,16.50
2015,06,01,07,23,16.50
2015,06,01,07,24,16.60
2015,06,01,07,25,16.60
2015,06,01,07,26,16.70
2015,06,01,07,27,16.70
2015,06,01,07,28,16.70
2015,06,01,07,29,16.70
2015,06,01,07,30,16.70
2015,06,01,07,31,16.70
2015,06,01,07,32,16.70
2015,06,01,07,33,16.60
2015,06,01,07,34,16.60
2015,06,01,07,35,16.60
2015,06,01,07,36,16.60
2015,06,01,07,37,16.70
2015,06,01,07,38,16.70
2015,06,01,07,39,16.70
2015,06,01,07,40,16.80
2015,06,01,07,41,16.80
2015,06,01,07,42,16.80
2015,06,01,07,43,16.90
2015,06,01,07,44,17.00
2015,06,01,07,45,17.00
2015,06,01,07,46,17.10
2015,06,01,07,47,17.10
2015,06,01,07,48,17.10
2015,06,01,07,49,17.10
2015,06,01,07,50,17.10
2015,06,01,07,51,17.10
2015,06,01,07,52,17.10
2015,06,01,07,53,17.10
2015,06,01,07,54,17.10
2015,06,01,07,55,17.20
2015,06,01,07,56,17.20
2015,06,01,07,57,17.20
2015,06,01,07,58,17.20
2015,06,01,07,59,17.20
2015,06,01,08,00,17.20
2015,06,01,08,01,17.20
2015,06,01,08,02,17.20
2015,06,01,08,03,17.10
2015,06,01,08,04,17.10
2015,06,01,08,05,17.10
2015,06,01,08,06,17.00
2015,06,01,08,07,16.90
2015,06,01,08,08,16.90
2015,06,01,08,09,16.90
2015,06,01,08,10,16.90
2015,06,01,08,11,16.80
2015,06,01,08,12,16.90
2015,06,01,08,13,16.90
2015,06,01,08,14,16.90
2015,06,01,08,15,16.90
2015,06,01,08,16,17.00
2015,06,01,08,17,17.00
2015,06,01,08,18,17.10
2015,06,01,08,19,17.10
2015,06,01,08,20,17.10
2015,06,01,08,21,17.10
2015,06,01,08,22,17.00
2015,06,01,08,23,16.90
2015,06,01,08,24,16.90
2015,06,01,08,25,16.80
2015,06,01,08,26,16.80
2015,06,01,08,27,16.80
2015,06,01,08,28,16.80
2015,06,01,08,29,16.80
2015,06,01,08,30,16.90
2015,06,01,08,31,16.90
2015,06,01,08,32,16.90
2015,06,01,08,33,17.00
2015,06,01,08,34,17.10
2015,06,01,08,35,17.10
2015,06,01,08,36,17.20
2015,06,01,08,37,17.20
2015,06,01,08,38,17.30
2015,06,01,08,39,17.30
2015,06,01,08,40,17.30
2015,06,01,08,41,17.30
2015,06,01,08,42,17.40
2015,06,01,08,43,17.40
2015,06,01,08,44,17.60
2015,06,01,08,45,17.70
2015,06,01,08,46,17.70
2015,06,01,08,47,17.80
2015,06,01,08,48,17.80
2015,06,01,08,49,17.90
2015,06,01,08,50,17.90
2015,06,01,08,51,18.10
2015,06,01,08,52,18.10
2015,06,01,08,53,18.20
2015,06,01,08,54,18.30
2015,06,01,08,55,18.30
2015,06,01,08,56,18.40
2015,06,01,08,57,18.40
2015,06,01,08,58,18.40
2015,06,01,08,59,18.40
2015,06,01,09,00,18.50
2015,06,01,09,01,18.60
2015,06,01,09,02,18.70
2015,06,01,09,03,18.70
2015,06,01,09,04,18.70
2015,06,01,09,05,18.70
2015,06,01,09,06,18.70
2015,06,01,09,07,18.70
2015,06,01,09,08,18.80
2015,06,01,09,09,18.80
2015,06,01,09,10,18.80
2015,06,01,09,11,18.80
2015,06,01,09,12,18.80
2015,06,01,09,13,18.70
2015,06,01,09,14,18.70
2015,06,01,09,15,18.70
2015,06,01,09,16,18.70
2015,06,01,09,17,18.70
2015,06,01,09,18,18.70
2015,06,01,09,19,18.70
2015,06,01,09,20,18.60
2015,06,01,09,21,18.60
2015,06,01,09,22,18.40
2015,06,01,09,23,18.40
2015,06,01,09,24,18.30
2015,06,01,09,25,18.30
2015,06,01,09,26,18.30
2015,06,01,09,27,18.30
2015,06,01,09,28,18.30
2015,06,01,09,29,18.30
2015,06,01,09,30,18.20
2015,06,01,09,31,18.10
2015,06,01,09,32,17.90
2015,06,01,09,33,17.80
2015,06,01,09,34,17.70
2015,06,01,09,35,17.70
2015,06,01,09,36,17.70
2015,06,01,09,37,17.80
2015,06,01,09,38,17.80
2015,06,01,09,39,17.90
2015,06,01,09,40,18.00
2015,06,01,09,41,18.10
2015,06,01,09,42,18.10
2015,06,01,09,43,18.10
2015,06,01,09,44,18.10
2015,06,01,09,45,18.10
2015,06,01,09,46,18.10
2015,06,01,09,47,18.10
2015,06,01,09,48,18.10
2015,06,01,09,49,18.10
2015,06,01,09,50,17.90
2015,06,01,09,51,17.90
2015,06,01,09,52,17.90
2015,06,01,09,53,17.90
2015,06,01,09,54,17.90
2015,06,01,09,55,17.90
2015,06,01,09,56,18.00
2015,06,01,09,57,18.10
2015,06,01,09,58,18.10
2015,06,01,09,59,18.10
2015,06,01,10,00,18.00
2015,06,01,10,01,17.90
2015,06,01,10,02,17.90
2015,06,01,10,03,17.90
2015,06,01,10,04,17.90
2015,06,01,10,05,17.90
2015,06,01,10,06,17.80
2015,06,01,10,07,17.80
2015,06,01,10,08,17.80
2015,06,01,10,09,17.70
2015,06,01,10,10,17.70
2015,06,01,10,11,17.60
2015,06,01,10,12,17.60
2015,06,01,10,13,17.60
2015,06,01,10,14,17.60
2015,06,01,10,15,17.60
2015,06,01,10,16,17.60
2015,06,01,10,17,17.40
2015,06,01,10,18,17.40
2015,06,01,10,19,17.40
2015,06,01,10,20,17.40
2015,06,01,10,21,17.30
2015,06,01,10,22,17.30
2015,06,01,10,23,17.30
2015,06,01,10,24,17.30
2015,06,01,10,25,17.30
2015,06,01,10,26,17.30
2015,06,01,10,27,17.40
2015,06,01,10,28,17.40
2015,06,01,10,29,17.40
2015,06,01,10,30,17.50
2015,06,01,10,31,17.50
2015,06,01,10,32,17.50
2015,06,01,10,33,17.40
2015,06,01,10,34,17.50
2015,06,01,10,35,17.60
2015,06,01,10,36,17.60
2015,06,01,10,37,17.70
2015,06,01,10,38,17.80
2015,06,01,10,39,17.80
2015,06,01,10,40,17.90
2015,06,01,10,41,18.00
2015,06,01,10,42,18.10
2015,06,01,10,43,18.10
2015,06,01,10,44,18.10
2015,06,01,10,45,18.20
2015,06,01,10,46,18.20
2015,06,01,10,47,18.30
2015,06,01,10,48,18.40
2015,06,01,10,49,18.50
2015,06,01,10,50,18.60
2015,06,01,10,51,18.60
2015,06,01,10,52,18.60
2015,06,01,10,53,18.60
2015,06,01,10,54,18.70
2015,06,01,10,55,18.70
2015,06,01,10,56,18.70
2015,06,01,10,57,18.60
2015,06,01,10,58,18.50
2015,06,01,10,59,18.40
2015,06,01,11,00,18.30
2015,06,01,11,01,18.20
2015,06,01,11,02,18.10
2015,06,01,11,03,18.10
2015,06,01,11,04,18.10
2015,06,01,11,05,18.10
2015,06,01,11,06,18.20
2015,06,01,11,07,18.20
2015,06,01,11,08,18.30
2015,06,01,11,09,18.30
2015,06,01,11,10,18.40
2015,06,01,11,11,18.60
2015,06,01,11,12,18.60
2015,06,01,11,13,18.60
2015,06,01,11,14,18.70
2015,06,01,11,15,18.70
2015,06,01,11,16,18.70
2015,06,01,11,17,18.80
2015,06,01,11,18,18.80
2015,06,01,11,19,18.90
2015,06,01,11,20,18.90
2015,06,01,11,21,19.00
2015,06,01,11,22,19.10
2015,06,01,11,23,19.10
2015,06,01,11,24,19.20
2015,06,01,11,25,19.30
2015,06,01,11,26,19.40
2015,06,01,11,27,19.40
2015,06,01,11,28,19.50
2015,06,01,11,29,19.60
2015,06,01,11,30,19.70
2015,06,01,11,31,19.70
2015,06,01,11,32,19.60
2015,06,01,11,33,19.50
2015,06,01,11,34,19.40
2015,06,01,11,35,19.40
2015,06,01,11,36,19.40
2015,06,01,11,37,19.30
2015,06,01,11,39,19.20
2015,06,01,11,40,19.10
2015,06,01,11,41,18.90
2015,06,01,11,42,18.80
2015,06,01,11,43,18.80
2015,06,01,11,44,18.70
2015,06,01,11,45,18.60
2015,06,01,11,46,18.50
2015,06,01,11,47,18.40
2015,06,01,11,48,18.30
2015,06,01,11,49,18.30
2015,06,01,11,50,18.30
2015,06,01,11,51,18.30
2015,06,01,11,52,18.30
2015,06,01,11,53,18.30
2015,06,01,11,54,18.20
2015,06,01,11,55,18.30
2015,06,01,11,56,18.30
2015,06,01,11,57,18.30
2015,06,01,11,58,18.30
2015,06,01,11,59,18.30
2015,06,01,12,00,18.30
2015,06,01,12,01,18.30
2015,06,01,12,02,18.30
2015,06,01,12,03,18.30
2015,06,01,12,04,18.20
2015,06,01,12,05,18.10
2015,06,01,12,06,18.10
2015,06,01,12,07,18.00
2015,06,01,12,08,17.90
2015,06,01,12,09,17.80
2015,06,01,12,10,17.80
2015,06,01,12,11,17.80
2015,06,01,12,12,17.70
2015,06,01,12,13,17.70
2015,06,01,12,14,17.60
2015,06,01,12,15,17.60
2015,06,01,12,16,17.60
2015,06,01,12,17,17.60
2015,06,01,12,18,17.60
2015,06,01,12,19,17.50
2015,06,01,12,20,17.60
2015,06,01,12,21,17.60
2015,06,01,12,22,17.60
2015,06,01,12,23,17.60
2015,06,01,12,24,17.70
2015,06,01,12,25,17.70
2015,06,01,12,26,17.80
2015,06,01,12,27,17.80
2015,06,01,12,28,17.90
2015,06,01,12,29,17.90
2015,06,01,12,30,17.90
2015,06,01,12,31,18.00
2015,06,01,12,32,17.90
2015,06,01,12,33,17.90
2015,06,01,12,34,17.90
2015,06,01,12,35,17.80
2015,06,01,12,36,17.80
2015,06,01,12,37,17.70
2015,06,01,12,38,17.70
2015,06,01,12,39,17.60
2015,06,01,12,40,17.60
2015,06,01,12,41,17.70
2015,06,01,12,42,17.70
2015,06,01,12,43,17.70
2015,06,01,12,44,17.80
2015,06,01,12,45,17.90
2015,06,01,12,46,17.90
2015,06,01,12,47,18.00
2015,06,01,12,48,18.10
2015,06,01,12,49,18.10
2015,06,01,12,50,18.10
2015,06,01,12,51,18.10
2015,06,01,12,52,18.10
2015,06,01,12,53,18.20
2015,06,01,12,54,18.20
2015,06,01,12,55,18.30
2015,06,01,12,56,18.30
2015,06,01,12,57,18.40
2015,06,01,12,58,18.60
2015,06,01,12,59,18.70
2015,06,01,13,00,18.70
2015,06,01,13,01,18.70
2015,06,01,13,02,18.70
2015,06,01,13,03,18.80
2015,06,01,13,04,18.80
2015,06,01,13,05,18.80
2015,06,01,13,06,18.80
2015,06,01,13,07,18.80
2015,06,01,13,08,18.70
2015,06,01,13,09,18.60
2015,06,01,13,10,18.50
2015,06,01,13,11,18.40
2015,06,01,13,12,18.30
2015,06,01,13,13,18.20
2015,06,01,13,14,18.10
2015,06,01,13,15,18.10
2015,06,01,13,16,18.10
2015,06,01,13,17,18.30
2015,06,01,13,18,18.40
2015,06,01,13,19,18.40
2015,06,01,13,20,18.60
2015,06,01,13,21,18.70
2015,06,01,13,22,18.80
2015,06,01,13,23,18.90
2015,06,01,13,24,19.10
2015,06,01,13,25,19.20
2015,06,01,13,26,19.20
2015,06,01,13,27,19.30
2015,06,01,13,28,19.40
2015,06,01,13,29,19.50
2015,06,01,13,30,19.60
2015,06,01,13,31,19.60
2015,06,01,13,32,19.70
2015,06,01,13,33,19.70
2015,06,01,13,34,19.60
2015,06,01,13,35,19.40
2015,06,01,13,36,19.40
2015,06,01,13,37,19.40
2015,06,01,13,38,19.40
2015,06,01,13,39,19.30
2015,06,01,13,40,19.30
2015,06,01,13,41,19.20
2015,06,01,13,42,19.20
2015,06,01,13,43,19.20
2015,06,01,13,44,19.10
2015,06,01,13,45,19.10
2015,06,01,13,46,18.90
2015,06,01,13,47,18.80
2015,06,01,13,48,18.80
2015,06,01,13,49,18.80
2015,06,01,13,50,18.80
2015,06,01,13,51,18.90
2015,06,01,13,52,18.90
2015,06,01,13,53,19.00
2015,06,01,13,54,19.00
2015,06,01,13,55,18.90
2015,06,01,13,56,18.90
2015,06,01,13,57,18.80
2015,06,01,13,58,18.80
2015,06,01,13,59,18.80
2015,06,01,14,00,18.80
2015,06,01,14,01,18.80
2015,06,01,14,02,18.80
2015,06,01,14,03,18.80
2015,06,01,14,04,18.80
2015,06,01,14,05,18.80
2015,06,01,14,06,18.80
2015,06,01,14,07,18.80
2015,06,01,14,08,18.80
2015,06,01,14,09,18.80
2015,06,01,14,10,18.80
2015,06,01,14,11,18.90
2015,06,01,14,12,18.90
2015,06,01,14,13,18.90
2015,06,01,14,14,19.10
2015,06,01,14,15,19.10
2015,06,01,14,16,19.20
2015,06,01,14,17,19.20
2015,06,01,14,18,19.20
2015,06,01,14,19,19.30
2015,06,01,14,20,19.40
2015,06,01,14,21,19.50
2015,06,01,14,22,19.60
2015,06,01,14,23,19.70
2015,06,01,14,24,19.80
2015,06,01,14,25,19.80
2015,06,01,14,26,19.80
2015,06,01,14,27,19.80
2015,06,01,14,28,19.70
2015,06,01,14,29,19.70
2015,06,01,14,30,19.70
2015,06,01,14,31,19.70
2015,06,01,14,32,19.70
2015,06,01,14,33,19.60
2015,06,01,14,34,19.50
2015,06,01,14,35,19.40
2015,06,01,14,36,19.30
2015,06,01,14,37,19.10
2015,06,01,14,38,19.10
2015,06,01,14,39,19.00
2015,06,01,14,40,19.00
2015,06,01,14,41,18.90
2015,06,01,14,42,18.90
2015,06,01,14,43,18.90
2015,06,01,14,44,18.90
2015,06,01,14,45,19.00
2015,06,01,14,46,19.10
2015,06,01,14,47,19.20
2015,06,01,14,48,19.20
2015,06,01,14,49,19.20
2015,06,01,14,50,19.20
2015,06,01,14,51,19.20
2015,06,01,14,52,19.20
2015,06,01,14,53,19.30
2015,06,01,14,54,19.30
2015,06,01,14,55,19.30
2015,06,01,14,56,19.30
2015,06,01,14,57,19.40
2015,06,01,14,58,19.50
2015,06,01,14,59,19.60
2015,06,01,15,00,19.60
2015,06,01,15,01,19.50
2015,06,01,15,02,19.40
2015,06,01,15,03,19.30
2015,06,01,15,04,19.20
2015,06,01,15,05,18.90
2015,06,01,15,06,18.80
2015,06,01,15,07,18.70
2015,06,01,15,08,18.40
2015,06,01,15,09,18.30
2015,06,01,15,10,18.30
2015,06,01,15,11,18.20
2015,06,01,15,12,18.10
2015,06,01,15,13,18.10
2015,06,01,15,14,18.00
2015,06,01,15,15,17.90
2015,06,01,15,16,17.90
2015,06,01,15,17,17.80
2015,06,01,15,18,17.70
2015,06,01,15,19,17.60
2015,06,01,15,20,17.50
2015,06,01,15,21,17.40
2015,06,01,15,22,17.40
2015,06,01,15,23,17.30
2015,06,01,15,24,17.30
2015,06,01,15,25,17.20
2015,06,01,15,26,17.20
2015,06,01,15,27,17.20
2015,06,01,15,28,17.20
2015,06,01,15,29,17.20
2015,06,01,15,30,17.20
2015,06,01,15,31,17.10
2015,06,01,15,32,17.10
2015,06,01,15,33,17.10
2015,06,01,15,34,17.00
2015,06,01,15,36,16.90
2015,06,01,15,37,16.90
2015,06,01,15,38,16.90
2015,06,01,15,39,16.90
2015,06,01,15,40,16.80
2015,06,01,15,41,16.80
2015,06,01,15,42,16.80
2015,06,01,15,43,16.80
2015,06,01,15,44,16.80
2015,06,01,15,45,16.70
2015,06,01,15,46,16.70
2015,06,01,15,47,16.70
2015,06,01,15,48,16.70
2015,06,01,15,49,16.60
2015,06,01,15,50,16.60
2015,06,01,15,51,16.50
2015,06,01,15,52,16.40
2015,06,01,15,53,16.40
2015,06,01,15,54,16.40
2015,06,01,15,55,16.30
2015,06,01,15,56,16.30
2015,06,01,15,57,16.30
2015,06,01,15,58,16.30
2015,06,01,15,59,16.20
2015,06,01,16,00,16.20
2015,06,01,16,01,16.10
2015,06,01,16,02,16.10
2015,06,01,16,03,16.10
2015,06,01,16,04,16.00
2015,06,01,16,05,16.00
2015,06,01,16,06,16.00
2015,06,01,16,07,15.90
2015,06,01,16,08,15.80
2015,06,01,16,09,15.80
2015,06,01,16,11,15.70
2015,06,01,16,12,15.60
2015,06,01,16,13,15.60
2015,06,01,16,14,15.50
2015,06,01,16,15,15.40
2015,06,01,16,16,15.40
2015,06,01,16,17,15.40
2015,06,01,16,18,15.30
2015,06,01,16,19,15.30
2015,06,01,16,20,15.30
2015,06,01,16,21,15.30
2015,06,01,16,22,15.30
2015,06,01,16,23,15.30
2015,06,01,16,24,15.30
2015,06,01,16,25,15.40
2015,06,01,16,26,15.40
2015,06,01,16,27,15.40
2015,06,01,16,28,15.40
2015,06,01,16,29,15.40
2015,06,01,16,30,15.40
2015,06,01,16,31,15.40
2015,06,01,16,32,15.40
2015,06,01,16,33,15.40
2015,06,01,16,34,15.30
2015,06,01,16,35,15.30
2015,06,01,16,36,15.30
2015,06,01,16,37,15.20
2015,06,01,16,38,15.20
2015,06,01,16,39,15.10
2015,06,01,16,40,15.00
2015,06,01,16,41,15.00
2015,06,01,16,42,15.00
2015,06,01,16,43,15.00
2015,06,01,16,44,15.00
2015,06,01,16,45,14.90
2015,06,01,16,46,14.90
2015,06,01,16,47,14.90
2015,06,01,16,48,14.90
2015,06,01,16,49,14.80
2015,06,01,16,50,14.80
2015,06,01,16,51,14.80
2015,06,01,16,52,14.80
2015,06,01,16,53,14.80
2015,06,01,16,54,14.80
2015,06,01,16,55,14.80
2015,06,01,16,56,14.70
2015,06,01,16,57,14.70
2015,06,01,16,58,14.70
2015,06,01,16,59,14.70
2015,06,01,17,00,14.70
2015,06,01,17,01,14.70
2015,06,01,17,02,14.70
2015,06,01,17,03,14.70
2015,06,01,17,04,14.70
2015,06,01,17,05,14.70
2015,06,01,17,06,14.80
2015,06,01,17,07,14.80
2015,06,01,17,08,14.70
2015,06,01,17,09,14.70
2015,06,01,17,10,14.70
2015,06,01,17,11,14.70
2015,06,01,17,12,14.70
2015,06,01,17,13,14.70
2015,06,01,17,14,14.70
2015,06,01,17,15,14.70
2015,06,01,17,16,14.70
2015,06,01,17,17,14.70
2015,06,01,17,18,14.60
2015,06,01,17,19,14.60
2015,06,01,17,20,14.60
2015,06,01,17,21,14.60
2015,06,01,17,22,14.60